Погода в Верхней Игре

Россия / Удмуртская Республика     55°56′56″N   52°06′23″E
темп.,
°C
ветер,
м/с
пор.,
м/с
влажн.,
%
обл.,
%
осадки,
мм/ч
давл.,
гПа
погр.,
м
23 апреля, пт
пт2301:00+3ю499329 0.0 1026228
04:00+3ююв4995100 0.0 1027279
07:00+3ю4795100 0.0 1027287
10:00+6ююв4582100 0.0 1028371
13:00+9юв456964 0.0 1027601
16:00+13вюв445614 0.0 10251074
19:00+10в4870100 0.0 1024210
22:00+7в41083100 0.0 1023203
24 апреля, сб
сб2401:00+6в5989100 0.0 1021246
04:00+5в4997100 0.0 1020231
07:00+6в5992100 0.0 1018471
10:00+6в5994100 0.6 1016585
13:00+7в5892100 0.3 1015590
16:00+7в4791100 0.6 1013534
19:00+6вюв4795100 0.4 1012419
22:00+6юв3794100 0.5 1011298
25 апреля, вс
вс2501:00+5юв3693100 0.1 1009242
04:00+5вюв5994100 0.1 1007290
07:00+5юв61296100 3.4 1004600
10:00+3зюз71396100 6.6 1005649
13:00+8зюз9116266 0.6 10061586
16:00+9юз8115296 0.9 10071846
19:00+6з81377100 0.3 10101059
22:00+4юз614845 0.3 1012470
26 апреля, пн
пн2601:00+3юз6138089 0.0 1013444
04:00+2юз614813 0.0 1014474
07:00+3юз713791 0.0 1015629
10:00+8юз8135519 0.0 10151594
13:00+11юз9144598 0.0 10142303
16:00+11юз8134391 0.0 10142232
19:00+9юз495414 0.0 1014259
22:00+5ююз3362100 0.0 101430
27 апреля, вт
вт2701:00+4з116893 0.0 101210
04:00+3св217098 0.0 101110
07:00+5вюв24685 0.0 1010116
10:00+10ююв34495 0.0 1009900
13:00+11ююз3442100 0.0 10071993
16:00+12ююз574585 0.0 10061831
19:00+9зюз696753 0.7 1006607
22:00+3зсз410845 0.9 1009387